Location: Enikep?du
(16.5133°N, 80.7066°E)
Time: 22:00:08
(UTC+00:00)

STARLINK-1047 - Pass Details

Date: 20 January 2020
Orbit: 553 x 556 km, 53.0° (Epoch: 20 February)

Event Time Altitude Azimuth Distance (km) Brightness Sun altitude
Exits shadow 00:17:46 - 235° (SW) 2,179 6.3 -12.5°
Reaches altitude 10° 00:18:43 10° 240° (WSW) 1,819 5.9 -12.3°
Maximum altitude 00:22:35 38° 308° (NW) 853 4.1 -11.4°
Drops below altitude 10° 00:26:26 10° 17° (NNE) 1,820 6.3 -10.5°
Sets 00:28:47 0° 26° (NNE) 2,713 7.3 -10.0°
